Find Starlink 31567

NORAD ID: 59199 Int'l Des: 2024-045 Owner: SPXS Country: US Constellation: starlink operational
LEOCIRCULAR

現在のビュー

3D地球を読み込み中...

About Starlink 31567

Starlink 31567 (NORAD 59199) is a starlink constellation satellite (v2 mini) launched Mar 11, 2024 by SPXS of US. It operates in LEO, CIRCULAR orbit with a mass of 730.00 kg.

Starlink 31567について

説明を読み込み中...

次回通過

Passes for default location (London). Set your location on the main map for personalized predictions.

高度履歴

Loading altitude history...

軌道要素

1 59199U 24045X 26173.57276368 .00000070 00000-0 12073-4 0 9995
2 59199 43.0020 220.0667 0001226 275.4256 84.6456 15.27585338129203
Epoch: Jun 22, 2026 • Age: 21 hours

現在のステータス

高度 484.2 km
速度 7.63 km/s
衛星直下点 30.38°N, 173.01°W
打ち上げ日 Mar 11, 2024
運用期間 2.2 years
タイプ internet

技術仕様

分類 Payload
質量 730.00 kg
乾燥質量 700.00 kg
総質量 730.00 kg
長さ 0.30 m
直径 4.10 m
スパン 29.00 m
形状 Box + pan
製造者 SPXS
バスタイプ Starlink V2M
フェーズステータス In Orbit
所有者/国 SPXS/US

Most Searched